Погода Ганюшкино

Погода Ганюшкино : погода сейчас, прогноз погоды и архив. Всё, что Вы хотите узнать о погоде Ганюшкино!

Хотите узнать прогноз погоды Ганюшкино? Тогда Вам сюда: Погода Ганюшкино

Поиск расширенной информации на нашем сайте:

Другие новости

Новости СМИ2

Главная страница сайта

Новости сайта

02.10.2013

Напоминаем, что на нашем новом сайте вы можете получить высокодетализированные прогнозы погоды по пунктам России, СНГ и мира (включающие важные для авиации метеовеличины, такие как направление и скорость ветра, видимость, явления погоды, количество и форма облачности, нижняя и верхняя граница облачности), а также ознакомиться с разнообразными материалами по авиационной метеорологии и подборкой полезных ссылок на эту тему.

Сайт Метеоцентр.Азия посвящён разработке технологий оптимизации авиаметеорологического обслуживания, включая проектирование и перспективное создание нескольких автоматизированных авиаметеорологических систем:
- система выпуска высокодетальных прогностических карт явлений погоды для нижнего воздушного пространства по России и ближнему зарубежью;
- система верификации прогнозов TAF (выпускаемых синоптиками официальных АМСГ РФ и ближнего зарубежья) и AUTOTAF (выпускаемых сайтом Метеоцентр.Азия) - выявление ошибок, онлайн-сопоставление с фактической погодой METAR, автоматическое внесение коррективов в прогнозы при резком отклонении фактической погоды от прогноза, подсчёт оправдываемости прогнозов по элементам и в целом;
- система обработки, анализа и отображения авиаметеорологической информации для применения провайдерами метеорологической информации.


Погода Ганюшкино - сегодня

Время (UTC), дата Ветер
(°,м/с) 
Видим.   Явления Облачность Т
(°С)
Тd
(°С)
f(%) Тe
(°С)
Pmin
(гПа)
dP
(гПа)
Po
(мм)
O2
(г/м3)
Тmin Tmax R s Состояние
почвы
21 17.01.17 050 (СВ) 10 км    3/0 верхняя 
[Ci fib]
-9.6 -12.6 79 -11  1029.5  -0.4  774  325           
00 18.01.17 080 (В) 10 км    6/0 верхняя 
[Cs]
-9.1 -12.1 79 -9  1029.5  774  324           
03 18.01.17 060 (СВ) 10 км    8/0 средняя 
[Ac trans]
-9.5 -12.1 81 -11  1029.9  0.4  775  325           
06 18.01.17 010 (С) 10 км    6/0 верхняя 
[Ci fib]
-8.8 -2.6 100 -10  1030.4  0.5  775  323  -9.9         
09 18.01.17 350 (С) 10 км    8/0 средняя 
[Ac trans]
-5.2 -9.7 71 -7  1030.1  -0.3  775  319           
12 18.01.17 350 (С) 10 км    ясно 
-3.2 -9.6 61 -3  1030.1  775  317           
15 18.01.17 350 (С) 10 км    3/0 верхняя 
[Ci fib]
-5.4 -9.6 72 -5  1030.4  0.3  775  320    -3       
18 18.01.17 350 (С) 10 км    ясно 
-8.2 -12.4 72 -10  1031.5  1.1  776  324    -3       
21 18.01.17 250 (З) 10 км    ясно 
-9.9 -3.5 100 -12  1031.6  0.2  776  325           
00 19.01.17 350 (С) 10 км    ясно 
-12.8 -15.5 80 -15  1031.4  -0.2  776  329           
03 19.01.17 360 (С) 10 км    ясно 
-13.4   1031.4             
06 19.01.17 340 (С) 10 км    6/0 средняя 
[Ac lent]
-12.2 -14.9 80 -16  1032  0.6  776  329  -13.8         
09 19.01.17 350 (С) 20000 м    8/0 верхняя 
[Cs]
-8 -14.2 61 -12  1031.7  -0.4  776  323           
12 19.01.17 330 (СЗ) 20000 м    8/0 средняя 
[Ac cast]
-5.2 -12.1 58 -9  1031.4  -0.3  776  320           
15 19.01.17 320 (СЗ) 10 км    6/0 средняя 
[Ac cuf]
-8.4 -14.8 60 -11  1031.4  776  324    -4.9       
18 19.01.17 350 (С) 10 км    ясно 
-11.5 -15 75 -11  1031.6  0.3  776  328    -4.9       
21 19.01.17 050 (СВ) 10 км    ясно 
-12.5 -15.2 80 -12  1031.8  0.2  776  329           
00 20.01.17 тихо ()   10 км    10/0 средняя 
[As op]
-13 -15.7 80 -13  1030.8  -1  776  330           
03 20.01.17 200 (Ю) 10 км    10/0 средняя 
[As op]
-10.1 -12.1 85 -12  1030.7  -0.1  775  326           
06 20.01.17 240 (ЮЗ) 10 км    10/0 средняя 
[As op]
-8.8 -13.2 70 -13  1030.4  -0.4  775  324  -13.2         
09 20.01.17 250 (З) 10 км    8/0 средняя 
[Ac cuf]
-7.1 -12.4 66 -12  1028.1  -2.3  773  321           
12 20.01.17 230 (ЮЗ) 20000 м    ясно 
-4.4 -12.4 54 -9  1025.2  -2.9  771  317           
15 20.01.17 230 (ЮЗ) 10 км    ясно 
-6.8 -12.5 64 -10  1023.2  -2  770  319    -4       
18 20.01.17 250 (З) 10 км    10/0 средняя 
[Ac und]
-7.2 -11.1 74 -10  1021.9  -1.3  769  319    -4       
21 20.01.17 240 (ЮЗ) 10 км    10/0 средняя 
[Ac und]
-6.1 -9.6 76 -8  1020.8  -1.1  768  317           
Время (UTC), дата Ветер
(°,м/с) 
Видим.   Явления Облачность Т
(°С)
Тd
(°С)
f(%) Тe
(°С)
Pmin
(гПа)
dP
(гПа)
Po
(мм)
O2
(г/м3)
Тmin Tmax R s Состояние
почвы

Для получения пояснительной информации подведите курсор к названию столбца.

ПОГОДА Ганюшкино - архив

Всё, что Вы хотите узнать о погоде Ганюшкино - удобно и подробно!

Выберите нужную дату (начиная с 1 января 2015* года) и нажмите кнопку "Найти".
Будут отображены архивные сводки погоды по пункту Ганюшкино, начиная с указанной даты.


Отображать данные в формате CSV (для использования в таблицах Excel)


Внимание! Наш архив погоды предназначен исключительно для личного некоммерческого использования в познавательных целях. Если Вам необходимы официальные справки о состоянии погоды (для производственных, юридических, коммерческих и т.п. целей), обращайтесь в органы Росгидромета.

*Примечание: данная дата относится к архиву по метеостанциям СССР (Россия, СНГ, Балтия).
Архив по метеостанциям Зарубежной Европы и Азии (кроме Китая) хранится 10 дней, по другим регионам земного шара (Китай, Африка, Америка, Австралия, Океания) - 1 день.

Ганюшкино - район местоположения метеостанции


Название, широта, долгота, высота метеостанции:
Ганюшкино 46.6°ш. 49.3°д. -23 м над ур. моря [Казахстан]

Дополнительная информация

В oтличие oт бoльшинства пoгoдных сайтoв мы публикуем пoдрoбную метеoинфoрмацию в детальнoм прoфессиoнальнoм фoрмате.

Характеристики температуры и влажнoсти вoздуха измеряются на высoте 2 м в тени вдали oт зданий и деревьев.
Скoрoсть ветра измеряется на высoте 10 м (на урoвне рoста челoвека скoрoсть ветра ниже в 1.5-2 раза). Если метеoстанция нахoдится в гoрoде или в лесу, тo скoрoсть ветра занижена на 2-4 м/с пo сравнению с oткрытым местoм. Скoрoсть ветра над акватoриями крупных рек и oзёр, а также на вершинах хoлмoв на 2-5 м/с выше, чем в oбычных услoвиях.
Атмoсфернoе давление в разных тoчках местнoсти мoжет значительнo oтличаться oт давления на метеoстанции, в зависимoсти oт услoвий рельефа (при пoдъёме на 10 м давление пoнижается примернo на 1 мм рт.ст.).